#timestamp,LO_Frequency,Hit,StdDev 
1601136015.4,286047002.4,N
1601136035.3,286047000.2,N
1601136055.1,286047002.7,N
1601136056.0,286047002.7,N
1601136075.8,286047002.7,N
1601136095.7,286047000.2,N
1601136115.5,286047002.3,N
1601136135.4,286046999.8,N
1601136155.2,286047000.0,N
1601136175.0,286047002.7,N
1601136175.9,286047002.7,N
1601136195.8,286046999.7,N
1601136215.6,286047000.0,N
1601136235.4,286046999.7,N
1601136255.3,286047000.1,N
1601136275.1,286047000.0,N
1601136295.9,286047000.0,N
1601136315.7,286047000.0,N
1601136335.5,286047000.4,N
1601136355.4,286047001.0,N
1601136375.2,286047001.0,N
1601136395.0,286047000.4,N
1601136396.0,286047000.4,N
1601136415.8,286047000.8,N
1601136435.6,286047000.0,N
1601136455.5,286047000.5,N
1601136475.3,286047000.5,N
1601136495.1,286047000.2,N
1601136515.9,286047000.9,N
1601136535.7,286047000.8,N
1601136555.6,286047001.2,N
1601136575.4,286046998.5,N
1601136595.2,286046998.6,N
1601136615.1,286046998.7,N
1601136616.0,286046998.7,N
1601136635.8,286046998.1,N
1601136655.7,286046998.6,N
1601136675.5,286046999.2,N
1601136695.3,286046999.4,N
1601136715.2,286046999.4,N
1601136735.0,286046996.9,Y
1601136735.9,286046996.9,P
1601136755.7,286046996.6,N
1601136775.6,286046996.6,N
1601136795.4,286046997.1,N
1601136815.3,286046996.9,N
1601136835.1,286046997.7,N
1601136836.0,286046997.7,N
1601136855.8,286046997.8,N
1601136875.7,286046997.1,N
1601136895.5,286046995.0,Y
1601136915.4,286046998.9,P
1601136935.2,286046998.9,N
1601136955.0,286046999.5,N
1601136955.9,286046999.5,N
1601136975.8,286046999.4,N
1601136995.6,286046999.2,N
1601137015.4,286046996.6,Y
1601137035.3,286046999.4,P
1601137055.1,286046996.7,P
1601137075.9,286046997.2,N
1601137095.7,286046996.7,N
1601137115.5,286046996.8,N
1601137135.4,286046996.9,N
1601137155.2,286046996.7,Y
1601137175.1,286047000.7,P
1601137176.0,286047000.7,N
1601137195.8,286046998.1,N
1601137215.6,286046998.2,N
1601137235.5,286047001.1,N
1601137255.3,286046999.0,N
1601137275.2,286046999.4,N
1601137295.9,286046999.6,N
1601137315.7,286046999.6,N
1601137335.6,286046997.0,N
1601137355.4,286046997.0,N
1601137375.2,286046997.7,N
1601137395.1,286046997.7,N
1601137396.0,286046997.7,N
1601137415.8,286046997.2,N
1601137435.7,286046997.5,N
1601137455.5,286046997.5,N
1601137475.3,286046995.0,Y
1601137495.2,286046996.7,P
1601137515.0,286046996.8,P
1601137515.9,286046996.8,P
1601137535.8,286046997.2,Y
1601137555.6,286047000.7,P
1601137575.4,286047001.2,N
1601137595.3,286046998.6,N
1601137615.1,286046999.0,N
1601137635.8,286046996.6,N
1601137655.7,286046999.4,N
1601137675.5,286046996.6,N
1601137695.4,286046996.8,N
1601137715.2,286046997.2,N
1601137735.0,286046996.7,N
1601137735.9,286046996.7,N
1601137755.8,286046997.0,N
1601137775.6,286046997.2,N
1601137795.4,286046997.7,N
1601137815.3,286046995.3,Y
1601137835.1,286046999.1,P
1601137855.9,286046999.3,N
1601137875.7,286046996.6,P
1601137895.5,286046996.7,Y
1601137915.4,286046998.5,P
1601137935.2,286046998.3,P
1601137955.1,286046998.1,P
1601137956.0,286046998.1,Y
1601137975.8,286047000.2,P
1601137995.6,286047000.8,N
1601138015.5,286047001.2,N
1601138035.3,286046998.2,N
1601138055.2,286046998.4,N
1601138075.9,286046998.8,N
1601138095.7,286046998.5,N
1601138115.6,286046998.6,N
1601138135.4,286046999.2,N
1601138155.2,286046999.2,N
1601138175.1,286046999.4,N
1601138176.0,286046999.4,N
1601138195.8,286046999.5,N
1601138215.7,286046996.6,Y
1601138235.5,286046998.7,P
1601138255.3,286046999.2,N
1601138275.2,286046999.0,P
1601138295.0,286046999.5,N
1601138295.9,286046999.5,N
1601138315.8,286046999.6,N
1601138335.6,286046996.7,Y
1601138355.4,286046999.5,P
1601138375.3,286046997.0,P
1601138395.1,286046999.1,N
1601138415.9,286046997.1,N
1601138435.7,286046997.7,N
1601138455.5,286046997.4,N
1601138475.4,286046997.6,N
1601138495.2,286046998.0,N
1601138515.0,286046998.0,N
1601138515.9,286046998.0,N
1601138535.8,286046995.3,Y
1601138555.6,286046996.5,P
1601138575.5,286046999.5,N
1601138595.3,286046997.2,N
1601138615.1,286046996.8,N
1601138635.9,286046995.4,Y
1601138655.7,286046999.3,P
1601138675.6,286046999.4,N
1601138695.4,286046999.0,N
1601138715.2,286046999.2,N
1601138735.1,286046996.5,Y
1601138736.0,286046996.5,P
1601138755.8,286046998.3,N
1601138775.6,286046999.6,N
1601138795.5,286046996.6,N
1601138815.3,286046999.5,N
1601138835.2,286046997.1,N
1601138855.9,286046996.5,N
1601138875.7,286046996.9,N
1601138895.6,286046997.4,N
1601138915.4,286046997.6,N
1601138935.2,286046997.5,N
1601138955.1,286046997.6,N
1601138956.0,286046997.6,N
1601138975.8,286046997.6,N
1601138995.7,286046994.9,Y
1601139015.5,286046999.1,P
1601139035.3,286046996.5,P
1601139055.2,286046996.8,P
1601139075.0,286046997.1,N
1601139075.9,286046997.1,Y
1601139095.8,286047001.0,P
1601139115.6,286047001.2,N
1601139135.4,286047000.8,N
1601139155.3,286047001.2,N
1601139175.1,286046998.4,N
1601139195.8,286046998.9,N
1601139215.7,286046999.3,N
1601139235.5,286046998.9,N
1601139255.4,286046999.4,N
1601139275.2,286046998.8,N
1601139295.0,286046996.5,N
1601139295.9,286046996.5,N
1601139315.8,286046996.7,N
1601139335.6,286046996.6,N
1601139355.4,286046996.7,N
1601139375.3,286046994.9,N
1601139395.1,286046994.9,N
1601139415.9,286046997.5,N
1601139435.7,286046997.9,N
1601139455.5,286046997.6,N
1601139475.4,286046994.9,N
1601139495.2,286046995.3,N
1601139515.0,286046995.3,N
1601139515.9,286046995.3,N
1601139535.8,286046995.7,N
1601139555.6,286046995.1,N
1601139575.5,286046996.2,N
1601139595.3,286046993.3,Y
